Location: Eymir
(36.7333°N, 29.7833°E)
Time: 18:38:26
(UTC+00:00)

Sakura Rocket - Pass Details

Date: 14 January 2026
Orbit: 474 x 1690 km, 28.7° (Epoch: 17 February)

Event Time Altitude Azimuth Distance (km) Brightness Sun altitude
Exits shadow 03:05:53 31° 195° (SSW) 1,222 4.4 -25.0°
Maximum altitude 03:06:51 33° 172° (S) 1,200 4.6 -24.8°
Drops below altitude 10° 03:12:12 10° 110° (ESE) 2,585 7.3 -23.8°
Sets 03:15:29 0° 102° (ESE) 3,762 8.6 -23.1°
